Weather Roundup
Issued by NWS Chicago, IL

Home | Current Version | Previous Version | Graphics & Text | Print | Product List | Glossary On
Versions: 1 2 3 4 5 6 7 8 9 10 11 12 13 14 15 16 17 18 19 20 21 22 23 24 25 26 27 28 29 30 31 32 33 34 35 36 37 38 39 40 41 42 43 44 45 46 47 48 49 50
000
NZUS59 KLOT 031602
HRRLOT

CHICAGO AREA WEATHER ROUNDUP
NATIONAL WEATHER SERVICE CHICAGO/ROMEOVILLE IL
1100 AM CDT SUN MAY 03 2015

NOTE: "FAIR" INDICATES FEW OR NO CLOUDS BELOW 12,000 FEET WITH NO
SIGNIFICANT WEATHER AND/OR OBSTRUCTIONS TO VISIBILITY.

* THESE STATIONS ARE NOT UNDER NWS QUALITY CONTROL. THEY ALSO MAY NOT
  REPORT WEATHER SUCH AS PRECIPITATION OR FOG.

ILZ005-006-012>014-019>023-031700-
NORTHEAST ILLINOIS

CITY           SKY/WX    TMP DP  RH WIND       PRES   REMARKS
OHARE          PTSUNNY   72  45  37 SW12G22   29.97S
MIDWAY         PTSUNNY   74  45  35 S14       29.98S
AURORA         PTSUNNY   73  48  41 SW14      29.98R
WAUKEGAN       PTSUNNY   74  47  38 S14       29.95R
DUPAGE AIRPORT PTSUNNY   73  48  41 SW17      29.97S
WHEELING       PTSUNNY   72  46  39 S14       29.97F
NORTHERLY IS     N/A     73  42  32 SW9         N/A
$$

WIZ051-052-058>065-066-070>072-031700-
SOUTHEAST WISCONSIN

CITY           SKY/WX    TMP DP  RH WIND       PRES   REMARKS
MILWAUKEE      CLOUDY    70  45  40 S15       29.94R
KENOSHA*       PTSUNNY   72  48  42 SW13      29.95R
RACINE*        PTSUNNY   68  46  45 S9        29.96R
WAUKESHA       PTSUNNY   61  46  59 S7        29.95S
$$

INZ001>003-010>013-019-020-031700-
NORTHWEST INDIANA

CITY           SKY/WX    TMP DP  RH WIND       PRES   REMARKS
GARY*          PTSUNNY   75 N/A N/A SW18        N/A
MICHIGAN CITY* NOT AVBL
RENSSELAER*    NOT AVBL
$$

LMZ740>746-031700-
SOUTHERN LAKE MICHIGAN

STATION/POSITION TIME  SKY/WX   TEMP WIND        PRES    VSBY
                                AIR  DIR/SP/G
                 (UTC)          (F)  (DEG/KT/KT) (MB)    (MI)
HARRISON CRIB    1500            68  200/ 15/ 18   N/A
BURNHAM HARBOR   1600            73  170/ 12/ 17   N/A
CALUMET HARBOR   1500            70  190/ 10/ 13   N/A
BURNS HARBOR     1500            70  210/ 15/ 20 1016.3S
MICHIGAN CITY    1500            69  180/ 13/ 15   N/A
$$

ABBREVIATIONS USED IN REMARKS
   TC - TEMPERATURE IN CELSIUS
  WCI - WIND CHILL INDEX
   HX - HEAT INDEX
  VSB - VISIBILITY
$$



USA.gov is the U.S. government's official web portal to all federal, state and local government web resources and services.